Wetterdaten: Montag, 15.06.2015
Datum Zeit Temp. A. Feuchte A. Luftdruck Regen Wind Richtung Richtung Sonnenschein ET UV Solar Taupunkt Windchill Windben Empfang
15.06.2015 00:00 15,7 C 86 % 1004,6 hPa 0,0 l/m 0,0 km/h (0 Bft) N-NW 330 0 min 0,000 mm 0,0 UV-I 0 W/m 13,4 C 15,7 C 0,0 km/h (0 Bft) 0,00 %
15.06.2015 01:00 14,4 C 89 % 1004,8 hPa 0,0 l/m 0,0 km/h (0 Bft) O-SO 120 0 min 0,000 mm 0,0 UV-I 0 W/m 12,6 C 14,4 C 0,0 km/h (0 Bft) 0,00 %
15.06.2015 02:00 13,5 C 93 % 1005,3 hPa 0,0 l/m 0,0 km/h (0 Bft) S-SO 160 0 min 0,000 mm 0,0 UV-I 0 W/m 12,4 C 13,5 C 0,0 km/h (0 Bft) 0,00 %
15.06.2015 03:00 13,7 C 94 % 1005,6 hPa 0,0 l/m 0,0 km/h (0 Bft) S 180 0 min 0,000 mm 0,0 UV-I 0 W/m 12,8 C 13,7 C 0,0 km/h (0 Bft) 0,00 %
15.06.2015 04:00 14,1 C 89 % 1006,6 hPa 0,0 l/m 5,8 km/h (2 Bft) S-SW 210 0 min 0,000 mm 0,0 UV-I 0 W/m 12,3 C 14,1 C 7,9 km/h (2 Bft) 0,00 %
15.06.2015 05:00 14,8 C 85 % 1006,9 hPa 0,0 l/m 0,0 km/h (0 Bft) SW 220 0 min 0,000 mm 0,0 UV-I 0 W/m 12,3 C 14,8 C 0,0 km/h (0 Bft) 0,00 %
15.06.2015 06:00 15,2 C 87 % 1007,5 hPa 0,3 l/m 1,4 km/h (1 Bft) SW 230 0 min 0,000 mm 0,0 UV-I 1 W/m 13,0 C 15,2 C 4,0 km/h (1 Bft) 0,00 %
15.06.2015 07:00 14,5 C 90 % 1008,3 hPa 0,3 l/m 0,6 km/h (0 Bft) W-SW 250 0 min 0,000 mm 0,0 UV-I 43 W/m 12,9 C 14,5 C 4,0 km/h (1 Bft) 0,00 %
15.06.2015 08:00 16,8 C 92 % 1010,8 hPa 0,3 l/m 1,8 km/h (1 Bft) SW 230 0 min 0,000 mm 0,0 UV-I 40 W/m 15,5 C 16,8 C 4,0 km/h (1 Bft) 0,00 %
15.06.2015 09:00 16,7 C 94 % 1011,2 hPa 0,3 l/m 1,4 km/h (1 Bft) SW 220 0 min 0,000 mm 1,0 UV-I 88 W/m 15,7 C 16,7 C 4,0 km/h (1 Bft) 0,00 %
15.06.2015 10:00 17,5 C 93 % 1008,9 hPa 0,6 l/m 0,0 km/h (0 Bft) O-SO 120 0 min 0,000 mm 1,0 UV-I 89 W/m 16,4 C 17,5 C 0,0 km/h (0 Bft) 0,00 %
15.06.2015 11:00 17,5 C 92 % 1009,6 hPa 0,3 l/m 0,4 km/h (0 Bft) SW 230 0 min 0,000 mm 1,0 UV-I 95 W/m 16,2 C 17,5 C 4,0 km/h (1 Bft) 0,00 %
15.06.2015 12:00 17,4 C 92 % 1010,1 hPa 0,0 l/m 0,0 km/h (0 Bft) SO 130 0 min 0,000 mm 1,0 UV-I 114 W/m 16,1 C 17,4 C 0,0 km/h (0 Bft) 0,00 %
15.06.2015 13:00 18,0 C 89 % 1010,3 hPa 0,0 l/m 0,0 km/h (0 Bft) S 180 0 min 0,000 mm 1,0 UV-I 109 W/m 16,2 C 18,0 C 0,0 km/h (0 Bft) 0,00 %
15.06.2015 14:00 18,4 C 86 % 1010,5 hPa 0,0 l/m 0,0 km/h (0 Bft) S 180 0 min 0,000 mm 1,0 UV-I 194 W/m 16,0 C 18,4 C 0,0 km/h (0 Bft) 0,00 %
15.06.2015 15:00 17,9 C 86 % 1010,6 hPa 0,0 l/m 0,0 km/h (0 Bft) O 90 0 min 0,000 mm 1,0 UV-I 151 W/m 15,5 C 17,9 C 0,0 km/h (0 Bft) 0,00 %
15.06.2015 16:00 17,8 C 86 % 1010,6 hPa 0,0 l/m 1,4 km/h (1 Bft) N 359 0 min 0,000 mm 1,0 UV-I 231 W/m 15,4 C 17,8 C 4,0 km/h (1 Bft) 0,00 %
15.06.2015 17:00 17,5 C 83 % 1010,7 hPa 0,0 l/m 5,5 km/h (1 Bft) O-SO 120 0 min 0,000 mm 1,0 UV-I 232 W/m 14,6 C 17,5 C 7,9 km/h (2 Bft) 0,00 %
15.06.2015 18:00 17,3 C 83 % 1010,7 hPa 0,0 l/m 5,5 km/h (1 Bft) O 90 0 min 0,000 mm 1,0 UV-I 136 W/m 14,4 C 17,3 C 7,9 km/h (2 Bft) 0,00 %
15.06.2015 19:00 17,0 C 83 % 1011,8 hPa 0,0 l/m 0,0 km/h (0 Bft) S 180 0 min 0,000 mm 0,0 UV-I 43 W/m 14,1 C 17,0 C 0,0 km/h (0 Bft) 0,00 %
15.06.2015 20:00 16,6 C 85 % 1011,9 hPa 0,0 l/m 0,0 km/h (0 Bft) O-SO 120 0 min 0,000 mm 0,0 UV-I 8 W/m 14,1 C 16,6 C 0,0 km/h (0 Bft) 0,00 %
15.06.2015 21:00 16,2 C 84 % 1012,7 hPa 0,3 l/m 0,3 km/h (0 Bft) S 180 0 min 0,000 mm 0,0 UV-I 0 W/m 13,5 C 16,2 C 4,0 km/h (1 Bft) 0,00 %
15.06.2015 22:00 15,8 C 88 % 1013,8 hPa 0,0 l/m 0,3 km/h (0 Bft) O-SO 120 0 min 0,000 mm 0,0 UV-I 0 W/m 13,8 C 15,8 C 4,0 km/h (1 Bft) 0,00 %
15.06.2015 23:00 15,8 C 87 % 1014,5 hPa 0,0 l/m 2,1 km/h (1 Bft) O 90 0 min 0,000 mm 0,0 UV-I 0 W/m 13,6 C 15,8 C 4,0 km/h (1 Bft) 0,00 %
_ Min-Zeit 02:00 17:00 00:00 - 00:00 - - - - - - 05:00 02:00 00:00 00:00
Minimum _ 13,5 C 83 % 1004,6 hPa - 0,0 km/h (0 Bft) - - - - - - 12,3 C 13,5 C 0,0 km/h (0 Bft) 0,00 %
_ Max-Zeit 14:00 03:00 23:00 10:00 04:00 - - 00:00 00:00 09:00 17:00 10:00 14:00 04:00 00:00
Maximum _ 18,4 C 94 % 1014,5 hPa 0,6 l/m 5,8 km/h
S-SW (2 Bft)
- - 0 min 0,000 mm 1,0 UV-I 232 W/m 16,4 C 18,4 C 7,9 km/h
S-SW (2 Bft)
0,00 %
Durchschnitt _ 16,3 C 88 % 1009,7 hPa #2,4 l/m 1,2 km/h (1 Bft) SW - #0 min. #0,000 mm 1,0 UV-I 105 W/m 14,3 C 16,3 C 2,6 km/h (1 Bft) 0,00 %